Simultaneous Nadir Overpasses (SNOs) Predictions

Prediction of SNOs between NPP and PACE Satellite Orbit:

Table of predicted SNOs for the next 14.0 days since TLE Epoch: 5/3/2025
Index Date (NPP) Time (NPP) Lat,Lon (NPP) SZA (NPP ) Date (PACE) Time (PACE) Lat,Lon (PACE) SZA (PACE ) Distance(km) Time Diff (sec)
1 05/03/2025 17:30:44 -79.88, 59.69 113.93 05/03/2025 17:30:47 -79.88, 59.71 113.94 0.65 3
2 05/05/2025 21:57:15 -79.95, -7.62 114.43 05/05/2025 21:57:59 -79.95, -7.63 114.45 0.37 44
3 05/05/2025 22:47:55 79.80, 161.16 65.29 05/05/2025 22:47:06 79.81, 161.19 65.31 0.65 49
4 05/08/2025 03:14:27 79.91, 93.50 64.88 05/08/2025 03:14:18 79.90, 93.65 64.87 2.99 9
5 05/10/2025 07:40:57 79.96, 26.38 64.40 05/10/2025 07:41:28 79.95, 26.49 64.36 2.51 31
6 05/10/2025 08:31:34 -79.72,-163.94 116.07 05/10/2025 08:30:32 -79.72,-164.06 116.02 2.35 62
7 05/12/2025 12:07:27 80.02, -40.78 63.95 05/12/2025 12:08:38 80.02, -40.83 63.92 1.04 71
8 05/12/2025 12:58:07 -79.86, 128.08 116.36 05/12/2025 12:57:44 -79.86, 128.13 116.35 0.94 23
9 05/14/2025 17:24:38 -79.95, 60.63 116.72 05/14/2025 17:24:54 -79.95, 60.69 116.74 1.29 16
10 05/16/2025 21:51:07 -79.98, -6.29 117.17 05/16/2025 21:52:02 -79.98, -6.35 117.19 1.36 55



Historial Predications of SNOs between NPP and PACE
